Temperature
20 19 18 19 18 17 17 17 16 16 16 16 15 15 15 14 13 14 14 14 14 14 14 14 14 14 13 14 14 14 14 14 15 16 16 16 16 16 16 16 16 16 15
20 19 19 19 18 18 18 18 17 16 16 15 15 14 14 14 14 14 14 13 13 13 13 13 13 13 13 13 14 14 14 14 14 15 15 16 16 16 15 15 15 15 15
19 19 19 19 18 18 18 17 17 17 16 15 14 14 14 14 14 15 14 14 14 13 13 13 13 13 13 13 13 13 13 13 14 14 15 15 15 16 16 16 15 15 15
19 18 18 17 17 17 16 16 16 16 16 15 14 14 14 14 14 14 14 14 14 14 13 12 12 13 13 13 13 13 13 13 13 14 14 14 15 16 16 15 15 15 15
17 16 16 16 16 15 15 14 14 14 15 15 15 15 14 14 14 14 14 14 14 14 13 13 13 12 13 12 12 12 12 12 12 12 12 13 15 15 15 15 14 14 14
18 17 17 18 16 16 17 15 16 16 16 15 15 15 15 15 15 14 14 14 14 14 13 13 13 12 12 12 12 12 12 12 12 13 13 13 13 14 14 13 13 13 13
17 17 17 17 17 15 15 15 15 15 15 15 15 15 16 15 14 14 14 14 14 14 14 13 13 13 13 12 12 12 12 12 12 12 13 12 12 13 13 13 14 13 13
15 15 15 16 16 15 14 15 15 14 15 15 15 15 15 15 14 14 14 14 14 14 14 14 13 13 13 13 13 12 12 12 12 12 12 12 12 12 13 13 14 14 13
14 14 14 15 14 14 14 14 14 14 14 14 14 14 14 14 14 14 14 14 14 14 13 13 13 13 13 13 13 13 12 12 12 12 12 13 13 13 13 13 14 14 14
12 12 12 12 13 13 13 13 13 12 13 13 13 13 13 14 13 13 13 13 13 13 13 13 13 13 13 13 13 13 13 13 13 13 13 13 13 13 13 13 13 13 13
12 12 11 11 11 11 11 11 11 11 11 11 12 12 12 12 12 12 13 13 13 13 13 13 13 13 13 13 13 13 13 13 13 13 13 13 13 13 13 13 13 13 13
12 12 11 11 11 11 11 11 11 11 11 11 11 11 11 11 11 11 11 12 12 12 12 12 12 12 12 12 13 13 13 13 12 12 12 12 13 13 13 13 12 12 11
12 12 12 12 12 11 11 11 11 11 11 11 11 11 11 11 11 11 11 11 11 11 11 11 12 12 12 12 12 13 12 12 12 12 12 12 12 12 12 11 11 11 11
13 12 12 11 11 11 11 11 11 11 11 11 11 11 11 10 10 11 11 11 11 10 11 11 11 11 11 12 12 12 12 12 11 11 11 11 11 11 11 11 11 11 10
12 12 12 11 11 11 11 11 11 11 10 10 10 10 11 11 10 10 10 10 10 10 10 11 11 11 11 11 11 11 11 11 11 10 10 10 10 10 10 10 10 10 10
13 12 12 11 11 11 11 11 11 11 10 10 10 10 11 10 10 10 10 9 9 9 10 10 10 10 11 10 10 10 10 10 10 10 10 10 10 10 10 10 10 10 10
13 12 12 11 11 11 11 11 11 10 10 10 10 10 10 10 10 10 9 9 9 9 10 10 10 10 10 11 11 11 10 10 10 10 10 10 10 10 10 10 10 10 10
13 12 12 11 11 11 11 11 11 10 10 10 10 10 10 10 10 10 9 9 9 9 9 10 10 10 10 10 10 10 10 10 10 10 10 10 10 10 10 10 9 9 9
13 12 12 11 11 11 11 11 10 10 10 10 9 10 10 10 10 10 10 10 10 9 9 9 9 9 9 10 10 10 9 9 9 9 9 9 9 9 9 9 9 9 9
13 12 12 12 11 11 11 10 10 10 9 9 9 9 10 10 10 10 9 9 9 9 9 9 9 9 9 9 9 9 9 9 9 9 9 9 9 9 9 8 8 8 8
14 13 12 12 11 11 11 11 10 10 10 9 9 9 9 10 10 10 10 10 9 9 9 9 9 9 8 8 8 8 8 8 8 8 8 8 8 9 8 8 8 8 8
14 13 12 12 11 11 11 11 10 10 10 10 9 9 9 9 9 9 9 9 9 9 8 8 8 8 7 8 8 8 8 8 8 8 8 8 8 8 8 8 8 8 8
14 13 12 11 11 11 11 11 10 10 10 9 9 9 8 8 8 8 8 8 8 8 8 8 7 7 7 7 8 8 8 8 7 7 8 8 8 8 8 8 8 8 7
14 13 12 11 11 11 11 11 10 10 9 9 9 8 8 8 7 7 7 7 7 7 7 7 7 8 7 7 7 8 8 7 7 7 8 8 8 8 8 7 7 7 7
14 12 12 11 11 11 11 11 10 10 9 9 8 8 8 8 7 7 7 6 6 6 6 7 8 8 8 8 7 7 7 7 7 7 7 7 7 7 7 7 7 6 6
13 12 12 11 11 11 11 11 10 10 9 9 8 8 8 7 7 7 6 6 6 6 7 7 8 8 8 8 7 7 7 6 6 6 6 7 7 6 6 6 6 5 5
Wind_Speed
6 6 4 6 7 7 4 5 6 6 7 7 6 5 6 6 5 3 3 3 4 5 6 8 10 10 8 6 6 4 4 4 4 2 2 3 4 6 5 10 11 11 13
7 5 5 5 4 5 6 5 6 7 7 7 7 7 7 7 6 5 5 4 4 5 6 6 7 8 9 8 8 6 4 4 3 2 2 2 3 5 5 4 6 9 12
4 4 5 6 6 5 5 4 5 6 7 7 7 7 7 7 7 7 6 5 4 5 5 6 7 6 5 6 7 6 5 3 2 2 2 1 1 1 2 1 2 4 9
3 3 2 4 4 2 4 7 6 6 8 8 8 7 7 7 8 7 5 4 3 4 5 5 5 6 7 8 8 8 7 5 2 1 1 3 3 2 2 2 4 5 5
3 8 8 7 6 8 8 9 9 12 9 7 7 7 6 6 7 7 6 6 5 4 3 1 2 6 9 8 6 7 6 5 5 3 2 2 3 4 5 4 6 3 5
6 10 11 13 13 13 10 9 8 10 11 4 4 6 5 5 8 11 9 7 6 6 5 4 4 6 8 11 12 11 10 8 5 4 2 1 3 3 4 6 5 3 4
6 1 4 8 5 6 3 6 7 7 3 5 8 7 4 4 6 10 11 7 6 6 6 5 5 6 7 7 11 13 13 12 9 6 4 7 5 5 5 6 6 7 7
9 9 8 8 6 2 1 2 2 3 3 6 5 0 2 3 6 3 8 6 5 6 6 6 7 7 7 9 8 9 10 11 11 9 8 9 8 7 7 6 8 8 3
9 8 8 8 7 6 6 6 5 4 4 3 2 2 3 5 7 8 4 3 3 5 6 6 6 7 9 11 9 7 7 7 9 12 14 14 13 13 9 6 6 6 5
7 7 6 7 7 8 7 6 5 5 5 6 6 4 2 3 5 3 4 2 3 5 5 5 6 7 11 11 10 8 7 6 6 7 10 10 5 3 6 7 5 5 3
6 6 6 5 5 5 5 6 6 7 7 7 6 5 5 5 5 3 3 5 5 4 5 5 4 6 7 7 9 7 6 4 3 4 4 4 2 0 0 1 3 4 4
6 6 5 5 6 5 7 7 7 6 7 7 6 6 5 4 5 5 3 2 4 4 5 5 6 7 7 4 5 5 7 5 5 4 3 3 2 1 0 1 2 1 1
5 5 5 6 6 6 6 6 5 6 5 4 4 5 5 5 6 8 7 6 5 4 4 7 9 6 5 4 6 8 7 5 5 3 3 2 2 2 2 2 2 2 1
4 3 3 4 3 4 4 4 4 4 4 4 5 5 5 5 5 5 6 6 4 3 4 5 2 5 6 5 4 4 4 5 4 3 3 3 3 2 2 1 1 1 1
3 0 1 2 3 2 3 3 2 2 3 3 3 4 5 6 7 8 4 4 3 3 2 1 2 4 5 4 4 4 3 3 3 2 2 2 2 2 3 3 3 3 2
3 0 1 2 3 3 3 1 2 2 3 4 5 5 4 5 7 8 7 4 7 7 1 3 4 4 4 4 5 4 3 3 3 3 2 2 2 3 3 3 4 3 3
4 3 1 2 3 4 4 3 1 1 1 3 4 6 6 3 5 6 3 5 10 9 2 3 3 4 3 3 4 4 3 3 3 2 1 1 1 2 2 3 3 2 3
5 5 3 1 1 2 2 2 2 2 2 1 2 3 5 5 3 3 3 2 5 5 5 6 5 4 4 3 3 3 3 3 2 1 1 1 1 2 2 2 2 2 3
5 4 3 1 1 1 1 2 2 3 2 2 3 4 7 7 8 7 4 2 2 3 4 4 4 4 4 4 5 4 4 4 3 2 2 1 2 2 2 3 4 5 4
6 6 5 3 1 1 2 2 2 3 4 4 4 4 5 5 6 6 6 6 6 6 5 5 5 5 5 5 5 5 5 5 4 3 2 3 3 3 3 4 4 4 4
6 6 6 4 2 2 2 2 2 3 3 3 3 4 5 5 5 5 6 6 5 5 4 4 5 6 5 5 5 4 4 3 3 3 3 3 3 3 4 4 4 4 4
6 6 5 4 3 3 3 3 3 4 3 4 3 5 8 5 5 5 5 5 6 6 5 5 6 6 6 6 6 5 5 4 4 5 5 4 3 4 4 3 4 4 4
6 6 5 4 3 3 4 3 3 4 3 4 4 4 4 4 5 5 5 5 5 5 6 6 7 6 5 6 7 5 4 4 4 5 5 4 4 3 3 4 4 4 3
6 7 6 5 4 4 4 4 4 4 4 3 3 3 3 3 4 4 4 3 4 5 5 6 5 6 6 6 6 5 5 5 6 5 5 4 3 3 3 2 3 3 3
6 5 5 5 4 4 5 5 4 4 4 3 3 2 3 3 4 4 4 3 4 5 6 6 6 6 7 7 7 8 8 7 6 5 4 3 4 4 3 3 3 3 3
6 5 4 4 5 5 5 5 5 4 3 3 3 3 4 3 3 4 4 4 4 5 6 6 8 9 9 9 10 11 12 13 14 13 10 5 6 6 5 5 5 5 4
Wind_Direction
190 205 193 151 164 172 187 177 174 171 180 187 189 197 220 215 203 188 201 204 229 239 225 220 223 216 212 198 192 172 155 177 222 246 203 195 160 168 179 196 208 206 205
188 176 180 173 187 205 211 197 182 188 193 198 199 202 215 217 212 204 215 218 233 255 255 243 241 221 211 190 185 170 148 163 167 221 239 202 191 184 161 180 202 206 207
165 173 197 202 198 216 242 238 207 197 203 213 216 213 214 224 225 222 206 211 231 261 262 243 235 212 179 162 162 155 146 146 145 170 229 193 233 164 126 169 207 213 217
168 206 44 359 321 309 299 286 276 238 211 210 219 225 216 217 226 233 201 203 241 276 275 250 221 200 180 166 159 158 155 149 140 122 223 221 188 166 142 178 224 230 233
112 87 67 5 352 45 345 311 340 316 273 221 224 234 230 209 209 206 196 193 194 234 271 264 189 182 176 175 172 166 166 159 148 147 200 216 191 171 195 196 214 218 241
124 171 174 202 185 164 192 208 198 246 268 263 261 257 245 215 215 204 190 187 186 190 207 232 231 213 200 202 200 183 172 166 163 157 181 241 248 206 183 197 186 171 251
63 68 224 243 176 202 227 257 258 265 263 218 218 208 197 199 230 219 209 188 193 199 195 201 223 230 218 214 215 207 200 197 188 171 192 225 226 216 202 198 193 195 213
50 49 45 55 71 80 244 284 321 307 249 231 233 75 33 321 291 226 204 187 200 216 221 213 216 231 220 207 206 215 213 209 204 201 214 226 228 224 225 217 209 213 233
41 40 38 47 53 45 35 20 15 12 356 306 267 295 318 311 283 228 187 168 203 238 244 239 230 240 244 212 191 206 217 219 207 214 228 232 236 244 229 212 195 196 228
40 52 49 49 46 37 29 19 14 22 29 40 64 69 40 350 343 249 213 192 231 259 274 277 265 260 248 222 194 193 210 219 202 213 229 228 229 257 212 199 187 196 208
43 69 55 54 58 43 31 23 23 30 36 44 58 57 46 28 3 341 230 203 223 241 258 269 274 297 276 226 188 181 190 179 158 153 129 133 148 127 63 206 201 209 215
64 70 53 39 34 35 48 40 37 43 44 30 28 20 13 6 6 9 11 265 239 231 244 251 253 269 261 189 166 179 165 135 113 112 119 133 142 149 162 98 104 93 35
69 63 45 47 46 40 48 40 34 32 33 18 19 15 356 351 354 357 354 329 289 256 262 270 266 247 185 166 159 146 133 126 133 140 138 137 158 159 137 102 65 40 342
70 73 41 32 29 32 37 42 41 21 5 9 10 357 342 339 354 351 340 328 326 308 291 303 297 148 139 145 139 119 123 147 153 148 140 155 171 158 156 176 175 184 260
84 28 333 348 328 349 17 22 22 8 353 359 347 323 331 344 341 337 319 302 293 286 274 210 151 145 148 151 135 128 130 126 121 119 142 168 197 198 200 202 204 197 213
138 207 305 329 327 318 310 319 59 18 5 3 333 344 355 359 1 27 35 2 353 345 276 178 162 153 149 161 145 121 114 132 149 157 179 197 222 230 218 207 216 212 227
154 189 215 349 345 343 343 348 339 345 345 13 20 27 40 32 35 42 47 339 342 346 49 107 118 126 135 153 143 136 148 163 159 160 192 219 242 263 246 234 227 235 263
161 178 173 145 16 4 17 47 52 39 28 357 305 320 322 333 349 331 322 280 318 349 36 63 65 74 106 122 116 94 78 84 96 97 79 21 349 322 308 298 289 268 266
157 165 169 166 302 345 99 67 43 43 36 14 359 344 338 359 31 29 26 28 22 35 49 63 70 75 81 83 79 75 69 66 65 58 31 1 326 302 288 280 279 281 273
164 164 163 155 203 133 113 74 63 64 53 41 26 355 347 26 44 33 27 30 41 45 54 62 61 62 58 60 62 68 68 65 64 54 24 356 331 306 287 281 267 265 265
168 162 152 140 137 138 139 129 106 100 87 58 17 7 59 80 67 48 34 35 39 36 40 53 55 53 48 56 61 68 73 72 58 23 350 332 323 314 304 297 292 288 281
167 159 155 153 146 128 132 138 129 114 96 71 39 56 74 72 70 64 52 34 36 33 25 38 51 47 40 35 32 34 35 26 12 351 322 306 305 304 305 306 300 290 292
158 156 154 150 163 147 130 122 124 122 113 94 88 82 76 75 69 64 59 48 47 45 44 44 44 41 38 34 27 21 9 348 324 308 305 304 309 316 315 310 310 307 304
150 154 159 166 165 138 129 123 128 138 140 126 117 117 120 111 97 89 84 77 69 61 61 59 53 43 29 24 10 353 336 322 309 304 309 316 328 332 333 343 346 348 338
146 153 162 169 160 148 143 139 139 138 139 142 127 107 97 96 107 104 84 70 75 75 67 57 45 35 27 13 2 357 3 15 12 356 352 5 21 16 11 7 358 350 336
148 152 153 157 155 157 154 154 157 149 149 153 131 113 107 97 92 98 87 74 74 75 71 50 38 33 27 17 15 27 46 51 47 46 46 42 47 36 26 23 23 17 2
Height
1489 1493 1493 1495 1499 1501 1503 1505 1504 1504 1506 1506 1506 1505 1506 1504 1503 1503 1504 1504 1504 1505 1505 1505 1506 1508 1511 1513 1516 1518 1520 1523 1523 1524 1527 1530 1532 1534 1535 1536 1537 1538 1538
1488 1490 1492 1495 1499 1501 1502 1503 1502 1503 1504 1505 1505 1504 1504 1503 1502 1501 1502 1501 1500 1500 1500 1499 1500 1501 1502 1506 1509 1512 1514 1517 1518 1519 1521 1525 1527 1529 1531 1533 1534 1534 1535
1488 1490 1492 1496 1496 1497 1499 1500 1501 1500 1501 1502 1504 1504 1503 1502 1501 1500 1500 1499 1498 1497 1496 1495 1496 1497 1498 1500 1503 1506 1508 1511 1512 1515 1517 1520 1523 1524 1526 1528 1530 1530 1531
1491 1492 1495 1499 1499 1498 1501 1503 1502 1501 1499 1499 1500 1501 1501 1500 1499 1499 1498 1497 1496 1495 1493 1492 1493 1493 1495 1498 1500 1502 1503 1505 1507 1510 1513 1517 1519 1520 1521 1523 1525 1526 1527
1493 1495 1497 1497 1499 1498 1500 1502 1499 1498 1498 1497 1497 1497 1498 1498 1497 1497 1497 1495 1494 1494 1493 1491 1491 1492 1493 1495 1496 1498 1500 1500 1502 1505 1509 1511 1513 1514 1516 1519 1521 1522 1522
1492 1491 1488 1486 1488 1491 1490 1491 1490 1489 1489 1493 1493 1494 1495 1495 1495 1495 1495 1494 1493 1492 1492 1492 1491 1491 1491 1492 1493 1495 1497 1498 1499 1502 1504 1506 1507 1510 1512 1514 1515 1516 1516
1485 1485 1485 1486 1487 1489 1489 1488 1489 1487 1485 1486 1488 1489 1490 1492 1492 1491 1492 1493 1492 1491 1491 1492 1492 1491 1491 1491 1491 1492 1494 1495 1497 1499 1501 1503 1504 1507 1508 1508 1508 1510 1511
1486 1485 1484 1484 1484 1484 1484 1486 1485 1484 1484 1485 1486 1486 1487 1488 1488 1487 1488 1490 1490 1490 1490 1490 1491 1491 1491 1491 1490 1490 1491 1492 1493 1494 1496 1499 1500 1502 1503 1504 1504 1506 1508
1487 1485 1485 1484 1484 1483 1482 1482 1482 1481 1481 1482 1482 1483 1483 1484 1484 1485 1485 1485 1487 1487 1488 1488 1488 1488 1489 1489 1488 1488 1488 1488 1490 1492 1494 1496 1497 1498 1500 1502 1501 1502 1502
1490 1489 1488 1486 1485 1483 1482 1481 1480 1479 1479 1479 1479 1479 1480 1481 1481 1481 1481 1481 1482 1483 1483 1484 1484 1484 1485 1485 1485 1486 1486 1487 1488 1490 1492 1493 1493 1494 1496 1498 1497 1498 1498
1494 1493 1492 1490 1487 1485 1484 1483 1482 1481 1480 1480 1479 1479 1478 1478 1477 1477 1476 1477 1478 1478 1478 1478 1479 1480 1481 1482 1482 1483 1484 1485 1486 1487 1488 1489 1490 1491 1492 1492 1492 1493 1494
1497 1495 1493 1490 1488 1488 1486 1485 1485 1484 1482 1481 1479 1478 1477 1476 1475 1474 1473 1473 1472 1472 1472 1472 1473 1475 1477 1478 1479 1480 1481 1481 1482 1483 1484 1486 1487 1488 1488 1488 1488 1489 1491
1498 1496 1494 1492 1491 1490 1488 1486 1485 1484 1483 1481 1479 1478 1476 1475 1474 1473 1472 1470 1469 1468 1468 1468 1468 1469 1471 1474 1476 1477 1478 1479 1480 1482 1482 1484 1485 1486 1485 1485 1486 1487 1488
1498 1497 1496 1495 1493 1491 1489 1488 1487 1486 1484 1481 1478 1477 1475 1474 1472 1470 1469 1467 1466 1465 1465 1465 1464 1466 1468 1469 1472 1473 1476 1478 1479 1480 1480 1482 1483 1483 1483 1484 1485 1486 1487
1499 1498 1497 1495 1493 1492 1491 1489 1487 1485 1483 1480 1478 1476 1474 1472 1470 1467 1466 1466 1464 1462 1462 1462 1463 1464 1466 1468 1469 1471 1474 1476 1478 1479 1479 1479 1480 1481 1482 1483 1483 1483 1483
1499 1498 1496 1495 1493 1492 1491 1489 1487 1485 1483 1480 1479 1477 1474 1473 1470 1468 1467 1466 1463 1460 1459 1459 1461 1462 1465 1468 1469 1471 1473 1475 1476 1477 1477 1477 1479 1480 1479 1481 1482 1480 1479
1499 1497 1496 1494 1493 1492 1491 1490 1487 1485 1483 1482 1480 1479 1477 1474 1472 1470 1469 1467 1464 1460 1456 1458 1460 1462 1464 1467 1469 1471 1473 1474 1475 1476 1476 1476 1477 1478 1477 1478 1478 1476 1475
1498 1497 1496 1495 1494 1493 1492 1490 1487 1486 1485 1483 1482 1481 1479 1477 1475 1473 1471 1469 1466 1464 1462 1462 1462 1464 1466 1468 1470 1472 1472 1473 1474 1474 1475 1475 1475 1475 1474 1473 1473 1472 1472
1497 1496 1495 1494 1494 1493 1492 1490 1488 1487 1486 1484 1483 1482 1481 1479 1478 1476 1474 1472 1470 1468 1467 1467 1468 1469 1470 1470 1471 1471 1472 1472 1473 1474 1473 1473 1473 1472 1471 1471 1470 1469 1468
1496 1495 1494 1493 1494 1494 1493 1491 1490 1488 1486 1484 1483 1483 1482 1481 1479 1477 1476 1475 1474 1473 1472 1471 1471 1471 1471 1471 1471 1471 1472 1472 1473 1473 1472 1471 1471 1470 1469 1468 1467 1465 1464
1494 1494 1493 1493 1493 1493 1493 1492 1491 1489 1488 1486 1485 1484 1483 1482 1480 1479 1478 1477 1476 1476 1475 1474 1473 1472 1472 1471 1471 1471 1471 1471 1471 1471 1470 1469 1468 1467 1466 1464 1462 1461 1460
1493 1493 1493 1493 1493 1493 1493 1493 1492 1491 1489 1489 1487 1486 1486 1484 1482 1481 1479 1478 1477 1477 1477 1476 1475 1474 1473 1472 1472 1471 1470 1470 1469 1468 1467 1466 1465 1464 1462 1460 1459 1458 1457
1492 1492 1492 1492 1492 1493 1493 1493 1493 1492 1491 1491 1490 1489 1488 1487 1485 1484 1482 1480 1479 1478 1478 1477 1476 1475 1473 1472 1471 1470 1469 1468 1467 1466 1465 1464 1463 1462 1460 1458 1456 1454 1453
1491 1490 1491 1491 1492 1493 1494 1494 1493 1493 1492 1492 1491 1490 1489 1488 1487 1485 1484 1482 1481 1480 1479 1477 1475 1474 1472 1470 1468 1466 1465 1464 1464 1464 1463 1462 1461 1459 1458 1456 1453 1452 1450
1490 1490 1490 1490 1491 1492 1493 1493 1492 1492 1492 1492 1492 1491 1490 1489 1488 1487 1486 1484 1482 1481 1479 1476 1475 1473 1470 1468 1466 1464 1463 1461 1461 1461 1460 1459 1458 1456 1454 1452 1450 1449 1447
1490 1489 1489 1489 1489 1490 1491 1492 1492 1492 1493 1493 1492 1491 1491 1490 1489 1488 1487 1485 1483 1481 1479 1477 1475 1473 1471 1469 1467 1465 1463 1462 1460 1459 1458 1457 1455 1453 1451 1450 1448 1447 1445